TimeHST,TemperatureF,Dew PointF,Humidity,Sea Level PressureIn,VisibilityMPH,Wind Direction,Wind SpeedMPH,Gust SpeedMPH,PrecipitationIn,Events,Conditions,WindDirDegrees,DateUTC
12:53 AM,78.1,64.9,64,30.01,10.0,SE,8.1,-,N/A,,Overcast,140,2013-07-06 10:53:00
1:53 AM,78.1,66.9,68,30.00,10.0,ESE,5.8,-,N/A,,Overcast,120,2013-07-06 11:53:00
2:53 AM,78.1,68.0,71,29.99,10.0,East,3.5,-,N/A,,Overcast,100,2013-07-06 12:53:00
3:53 AM,78.1,69.1,74,29.98,10.0,Calm,Calm,-,N/A,,Overcast,0,2013-07-06 13:53:00
4:33 AM,78.8,69.8,74,29.97,10.0,West,3.5,-,N/A,,Overcast,280,2013-07-06 14:33:00
4:53 AM,78.1,70.0,76,29.97,10.0,West,4.6,-,N/A,,Overcast,260,2013-07-06 14:53:00
5:00 AM,78.8,69.8,74,29.97,10.0,West,5.8,-,N/A,,Overcast,270,2013-07-06 15:00:00
5:53 AM,78.1,70.0,76,29.98,10.0,West,4.6,-,N/A,,Overcast,260,2013-07-06 15:53:00
6:53 AM,78.1,71.1,79,30.00,10.0,WSW,5.8,-,N/A,,Overcast,240,2013-07-06 16:53:00
7:20 AM,78.8,71.6,78,30.00,10.0,WSW,6.9,-,N/A,,Overcast,250,2013-07-06 17:20:00
7:53 AM,79.0,70.0,74,30.02,10.0,WSW,6.9,-,N/A,,Overcast,240,2013-07-06 17:53:00
8:53 AM,79.0,70.0,74,30.02,10.0,ESE,4.6,-,N/A,,Overcast,110,2013-07-06 18:53:00
9:39 AM,80.6,69.8,70,30.02,10.0,SW,4.6,-,N/A,,Overcast,230,2013-07-06 19:39:00
9:53 AM,80.1,70.0,71,30.02,10.0,SSW,4.6,-,N/A,,Overcast,210,2013-07-06 19:53:00
10:17 AM,80.6,71.6,74,30.02,10.0,WSW,8.1,-,N/A,,Overcast,240,2013-07-06 20:17:00
10:53 AM,81.0,71.1,72,30.02,10.0,WSW,8.1,-,N/A,,Mostly Cloudy,240,2013-07-06 20:53:00
11:53 AM,82.0,70.0,67,30.01,10.0,West,10.4,-,N/A,,Overcast,260,2013-07-06 21:53:00
12:53 PM,81.0,70.0,69,30.00,10.0,West,10.4,-,N/A,,Overcast,260,2013-07-06 22:53:00
1:53 PM,82.9,70.0,65,29.99,10.0,West,10.4,-,N/A,,Overcast,260,2013-07-06 23:53:00
2:53 PM,84.0,70.0,63,29.98,10.0,West,11.5,-,N/A,,Mostly Cloudy,260,2013-07-07 00:53:00
3:53 PM,82.0,70.0,67,29.97,10.0,West,10.4,-,N/A,,Overcast,260,2013-07-07 01:53:00
4:01 PM,82.4,69.8,66,29.96,10.0,West,10.4,-,N/A,,Overcast,260,2013-07-07 02:01:00
4:17 PM,82.4,69.8,66,29.96,10.0,West,11.5,-,N/A,,Overcast,260,2013-07-07 02:17:00
4:53 PM,82.9,70.0,65,29.96,10.0,WSW,10.4,-,N/A,,Scattered Clouds,250,2013-07-07 02:53:00
5:53 PM,82.0,70.0,67,29.96,10.0,West,8.1,-,N/A,,Partly Cloudy,270,2013-07-07 03:53:00
6:53 PM,80.1,70.0,71,29.97,10.0,West,6.9,-,N/A,,Partly Cloudy,260,2013-07-07 04:53:00
7:19 PM,80.6,69.8,70,29.97,10.0,West,6.9,-,N/A,,Mostly Cloudy,280,2013-07-07 05:19:00
7:42 PM,80.6,69.8,70,29.98,10.0,WNW,5.8,-,N/A,,Scattered Clouds,290,2013-07-07 05:42:00
7:53 PM,79.0,70.0,74,29.99,10.0,WNW,4.6,-,N/A,,Partly Cloudy,290,2013-07-07 05:53:00
8:53 PM,79.0,70.0,74,30.00,10.0,NNW,3.5,-,N/A,,Scattered Clouds,340,2013-07-07 06:53:00
9:53 PM,79.0,69.1,72,30.01,10.0,Calm,Calm,-,N/A,,Overcast,0,2013-07-07 07:53:00
10:53 PM,78.1,69.1,74,30.01,10.0,East,4.6,-,N/A,,Mostly Cloudy,100,2013-07-07 08:53:00
11:53 PM,77.0,68.0,74,30.00,10.0,ESE,4.6,-,N/A,,Clear,110,2013-07-07 09:53:00